ブランパン彗星

289P/Blanpain (2019)

English version
Home page
Updated on January 25, 2020

---------------------------------------------------------------------

・ プロフィール

・ 写真集

・ 軌道要素

Epoch 2019 Dec. 23.0 TT = JDT 2458840.5                                         
T 2019 Dec. 20.98969 TT                                 MPCW                    
q   0.9588856            (2000.0)            P               Q                  
n   0.18531573     Peri.    9.84641     +0.19558752     -0.97598832             
a   3.0469210      Node    68.92388     +0.89262824     +0.13668298             
e   0.6852936      Incl.    5.89756     +0.40615311     +0.16960118             
P   5.32                                                                        
From 329 observations 2003 Oct. 25-2019 Nov. 2, mean residual 0".7.             
     Nongravitational parameters A1 = -0.09, A2 = -0.0082.                      

・ 星図

・ 光度変化

        H = 18.5  G = 0.15

---------------------------------------------------------------------

軌道要素はM.P.E.C. 2019-W179に掲載されたものです。
星図はステラナビゲータ Ver.10 (アストロアーツ) で作成したものです。
光度グラフはComet for Windowsで作成したものです。

---------------------------------------------------------------------

Copyright(C) Seiichi Yoshida (comet@aerith.net). All rights reserved.